Wind_Speed
29 29 28 28 29 30 31 31 31 31 32 33 33 33 34 34 34 34 34 35 35 35 36 36 37 37 38 38 38 38 38 39 39 40 40 40 40 41 42 42 42 43 43 43
31 30 29 30 30 31 32 32 31 31 32 34 35 35 34 35 35 35 35 35 35 36 37 37 37 38 38 39 39 40 40 40 40 41 41 41 42 42 43 44 45 45 45 45
33 31 31 32 32 32 33 33 32 33 33 35 36 35 35 35 35 36 36 36 36 37 37 38 38 39 40 40 40 41 41 42 42 42 42 42 43 43 44 45 46 47 47 47
33 33 33 33 33 33 34 33 34 34 35 36 36 37 34 35 36 35 35 36 36 37 38 38 39 39 40 41 41 41 42 42 43 43 43 44 44 45 46 47 47 47 47 47
33 33 33 34 33 34 34 34 34 35 36 37 37 39 35 34 35 35 35 35 36 37 38 39 39 39 40 41 41 42 42 43 43 44 45 45 45 46 46 47 47 47 47 48
34 34 34 34 34 34 35 35 36 37 37 39 36 39 37 34 35 35 36 36 36 36 37 37 38 39 40 40 41 42 42 43 44 45 45 46 46 47 47 47 47 48 48 48
34 34 34 34 34 35 36 36 37 38 39 39 37 39 39 35 35 36 37 37 37 38 38 38 38 38 38 39 40 41 42 43 44 45 45 46 46 46 46 46 47 47 48 48
35 34 34 34 34 35 35 36 37 39 40 39 38 39 38 36 35 35 36 36 37 37 37 37 37 37 38 38 39 40 41 42 43 44 45 46 46 46 45 46 46 47 48 48
34 35 34 34 34 35 36 36 36 38 40 41 41 40 38 36 35 35 35 35 35 36 36 37 37 38 38 39 39 39 40 40 41 42 43 44 45 46 46 46 46 47 48 49
34 35 34 34 35 35 36 35 35 37 40 42 43 41 39 37 37 36 35 35 35 35 36 37 38 38 38 39 39 40 40 41 41 43 43 43 44 45 45 46 47 47 47 48
33 34 33 34 34 34 34 35 36 37 39 41 43 41 38 37 37 36 36 35 35 36 36 37 38 38 38 39 40 40 40 41 41 42 43 43 44 45 45 46 46 46 47 48
33 34 35 34 33 34 35 35 36 38 39 40 42 41 39 38 37 36 36 36 36 36 37 38 38 38 38 39 40 40 41 41 41 42 42 43 43 44 45 46 46 47 48 48
32 34 35 34 34 34 35 35 36 38 40 41 41 40 38 37 36 36 37 37 37 37 37 37 37 37 38 38 39 40 41 41 42 42 42 43 44 44 45 46 46 47 48 49
32 34 34 35 35 35 35 35 36 38 39 40 39 38 36 36 36 36 37 37 38 37 37 37 37 38 38 38 38 39 40 41 42 42 42 43 43 44 45 46 46 47 48 49
33 34 34 34 34 35 35 35 36 37 38 39 37 37 35 35 35 35 35 36 36 35 35 36 37 37 38 38 38 39 40 41 42 42 42 43 44 44 45 46 46 47 48 49
34 34 33 33 33 35 35 35 35 36 36 37 37 36 35 35 36 36 35 35 35 35 36 36 36 37 38 38 39 40 40 41 42 42 43 44 44 44 45 46 47 48 48 48
33 33 33 33 33 36 35 34 35 35 36 37 37 36 35 36 36 35 35 35 35 36 36 36 36 37 38 38 39 40 40 41 42 43 43 44 44 45 46 46 47 47 47 47
32 32 34 34 33 35 33 34 35 36 35 36 37 36 35 35 35 35 35 35 35 35 36 36 36 37 37 37 38 39 39 40 41 42 43 44 44 45 46 47 47 46 46 46
31 32 33 34 35 35 33 34 35 36 35 35 35 35 35 35 36 35 35 35 35 36 36 36 37 37 37 37 38 39 39 39 40 41 42 43 44 45 46 46 45 45 46 46
30 31 32 34 36 36 34 34 34 36 36 35 34 34 35 35 36 36 36 36 36 36 37 37 37 38 38 38 38 39 39 40 41 41 42 43 43 44 44 44 44 44 45 45
29 30 31 32 34 35 34 33 33 34 34 34 34 34 35 35 36 36 36 36 37 37 37 37 38 38 38 38 39 39 40 40 41 42 42 42 43 43 43 43 43 43 43 44
29 30 30 31 33 33 33 33 33 33 33 34 35 35 34 34 35 36 36 36 37 37 37 37 38 38 38 39 39 40 40 40 41 42 42 42 42 42 42 42 42 42 42 42
28 29 29 30 31 31 31 32 33 33 33 34 34 34 34 34 35 36 36 36 36 37 37 37 38 38 39 39 39 39 39 40 40 40 40 40 40 40 40 40 40 40 41 41
28 29 30 30 29 29 30 30 31 32 33 33 33 33 33 33 34 34 35 36 36 36 37 37 37 37 37 38 38 38 38 38 38 38 39 39 39 39 39 39 39 39 40 40
28 28 29 29 29 30 30 31 31 31 32 32 32 32 33 33 33 34 34 34 35 35 36 36 37 37 37 37 37 37 37 37 37 37 37 37 37 37 37 38 38 38 39 39
29 29 29 29 29 30 30 30 30 30 30 30 31 32 32 32 32 33 33 34 34 35 35 35 35 36 36 36 36 36 36 37 37 37 37 37 37 37 37 36 36 37 37 38
Wind_Direction
266 266 267 269 269 269 268 268 268 267 267 266 266 267 266 266 266 266 266 265 265 266 265 265 266 266 265 265 264 264 264 264 264 264 264 265 265 266 267 268 268 269 270 271
265 267 269 269 269 269 269 268 268 268 268 267 266 266 265 266 267 266 266 266 266 267 267 267 267 266 265 265 264 264 265 265 265 265 265 265 266 267 267 268 270 271 271 272
266 268 268 269 270 270 270 270 270 271 270 269 268 266 266 266 267 268 268 268 268 268 268 269 268 267 266 265 264 264 264 264 265 265 266 266 266 267 269 270 271 271 272 272
266 267 268 269 270 272 271 272 271 271 271 269 269 269 266 266 267 268 269 270 270 270 270 269 269 268 267 265 264 264 264 265 265 266 266 267 267 268 269 270 271 271 272 273
268 268 268 269 271 271 271 271 271 272 271 269 269 271 268 268 268 270 271 271 271 271 270 269 268 267 266 266 266 265 265 265 266 266 267 267 268 269 270 270 271 271 272 273
269 268 268 268 268 269 269 270 270 270 271 269 271 273 271 270 272 272 271 271 271 271 270 269 269 268 267 267 267 266 266 265 265 266 267 267 268 269 270 270 271 272 272 272
270 269 268 267 267 267 268 269 270 270 270 272 274 273 274 275 275 274 273 272 271 270 270 269 270 269 268 267 268 268 267 266 266 267 267 268 268 269 269 270 271 272 273 273
272 270 269 268 267 269 268 268 269 271 273 274 274 274 276 277 277 277 276 273 272 271 270 270 270 270 269 268 268 269 269 267 267 267 268 268 268 268 269 270 271 273 274 274
273 272 270 268 266 267 268 268 270 271 272 273 274 275 276 279 279 279 277 275 273 272 271 270 270 270 270 270 270 270 270 270 270 269 269 269 268 268 269 270 271 273 274 275
272 272 270 270 268 266 266 267 268 270 272 274 276 277 280 281 281 281 279 276 275 273 271 271 271 271 272 271 270 271 271 272 271 271 270 270 270 269 270 271 272 273 274 275
270 270 270 269 269 269 267 266 267 270 272 274 277 279 282 282 282 281 280 278 277 276 274 273 272 271 271 271 272 272 273 273 273 273 272 271 271 271 271 272 273 273 274 275
270 270 270 269 270 269 267 268 268 270 272 274 276 278 280 281 282 281 280 279 278 277 275 274 274 273 272 272 273 273 274 274 274 274 274 273 272 272 272 272 273 274 275 276
269 270 271 269 269 269 269 269 270 270 271 273 275 277 279 279 280 280 279 278 278 278 277 277 276 274 274 274 274 274 274 273 274 274 274 274 273 273 273 273 273 275 276 277
271 270 270 271 271 271 271 271 271 272 274 275 277 279 279 279 279 278 278 278 279 279 278 277 276 275 274 274 274 274 274 274 274 274 274 274 274 275 275 275 276 276 277 278
272 272 271 270 270 271 272 273 273 274 275 276 278 278 278 278 278 279 278 279 279 277 277 276 276 275 274 274 274 274 274 275 275 275 275 275 276 276 277 277 277 278 279 280
273 274 274 273 272 273 273 273 274 275 275 277 278 278 278 277 278 278 278 279 279 278 278 277 276 275 275 274 274 275 276 276 277 277 276 277 277 277 278 278 279 280 280 280
274 275 276 277 276 275 273 275 276 277 277 278 279 278 277 276 277 278 279 279 279 279 278 278 277 276 277 276 275 276 276 277 278 278 277 277 278 279 279 280 280 280 280 280
275 276 276 277 277 276 277 276 276 277 277 277 277 277 277 278 278 278 279 279 278 278 279 279 279 278 278 278 277 277 278 278 279 279 279 279 279 280 280 280 280 280 280 281
275 276 277 278 278 278 277 278 278 278 277 277 277 278 278 278 278 278 278 278 278 278 279 279 279 279 279 280 280 279 279 279 280 280 280 280 280 281 281 281 280 280 280 281
275 276 278 279 280 280 279 278 278 277 276 277 277 278 278 279 277 277 278 278 278 279 279 279 280 280 281 281 281 281 280 280 280 280 281 281 281 282 282 281 280 280 280 281
277 278 279 281 281 281 280 279 278 277 278 277 277 278 279 278 278 278 278 278 279 280 281 281 281 282 282 282 282 281 280 280 281 282 282 282 282 282 282 281 281 281 281 282
280 281 283 285 283 282 282 280 278 279 279 279 278 279 279 278 278 279 279 280 281 282 282 282 282 282 283 282 282 281 280 281 282 283 283 282 283 283 283 281 280 280 282 282
280 281 283 284 285 285 282 281 280 278 279 279 279 278 278 279 279 279 280 281 282 283 283 283 283 283 283 283 282 282 282 283 284 284 284 284 284 284 283 282 281 281 282 282
281 280 281 283 284 282 281 280 280 279 278 278 279 279 280 281 282 281 281 282 283 284 284 283 283 283 283 283 283 283 283 284 283 283 284 284 284 284 283 283 282 283 283 283
282 283 282 283 282 279 279 280 280 280 278 277 278 280 281 282 282 283 283 284 284 284 284 283 282 282 283 283 283 283 284 284 284 284 284 283 283 284 284 285 284 284 284 284
281 282 283 283 283 281 279 280 281 279 278 278 279 281 283 283 283 284 285 285 284 285 284 283 283 283 284 284 284 284 283 283 284 284 284 283 282 283 284 284 285 285 285 285
Height
5728 5729 5729 5730 5729 5729 5727 5727 5726 5727 5726 5725 5725 5726 5726 5725 5725 5725 5725 5725 5725 5725 5724 5724 5724 5724 5723 5723 5724 5724 5724 5724 5724 5724 5725 5725 5725 5725 5725 5725 5725 5725 5724 5724
5721 5721 5723 5721 5720 5719 5718 5718 5718 5718 5717 5716 5715 5716 5716 5716 5716 5716 5716 5716 5716 5715 5715 5715 5714 5714 5713 5713 5713 5713 5713 5713 5713 5714 5714 5714 5714 5714 5714 5713 5713 5713 5712 5712
5712 5715 5713 5712 5711 5710 5710 5710 5710 5709 5707 5706 5705 5706 5707 5707 5706 5707 5707 5706 5705 5705 5705 5704 5703 5703 5702 5702 5702 5702 5702 5702 5702 5702 5702 5702 5702 5702 5702 5701 5701 5701 5700 5700
5702 5704 5703 5702 5702 5701 5701 5701 5700 5698 5697 5696 5696 5695 5698 5697 5697 5697 5697 5696 5695 5695 5694 5693 5692 5692 5691 5691 5690 5690 5690 5690 5690 5690 5690 5690 5690 5690 5689 5689 5689 5688 5687 5687
5694 5694 5694 5693 5694 5692 5692 5691 5690 5688 5687 5686 5685 5684 5688 5688 5687 5688 5687 5686 5685 5684 5683 5681 5681 5680 5679 5679 5678 5678 5678 5678 5678 5678 5678 5677 5677 5677 5676 5676 5676 5675 5675 5674
5684 5684 5683 5683 5684 5682 5682 5681 5680 5678 5676 5675 5677 5674 5675 5678 5678 5677 5676 5675 5674 5673 5671 5670 5669 5668 5668 5667 5666 5666 5666 5666 5666 5665 5665 5665 5664 5664 5663 5663 5662 5662 5661 5661
5674 5674 5673 5673 5673 5673 5672 5671 5670 5667 5665 5665 5667 5664 5664 5668 5668 5666 5665 5664 5663 5661 5660 5659 5658 5657 5656 5655 5655 5654 5654 5653 5653 5652 5652 5651 5651 5651 5650 5650 5649 5649 5648 5648
5663 5664 5664 5663 5663 5663 5662 5661 5660 5658 5657 5657 5656 5653 5656 5657 5657 5655 5654 5653 5651 5650 5649 5648 5647 5646 5645 5644 5643 5643 5642 5641 5640 5639 5639 5638 5638 5638 5637 5637 5637 5636 5635 5635
5652 5653 5653 5653 5652 5652 5652 5651 5651 5649 5646 5645 5644 5644 5646 5647 5646 5644 5643 5642 5641 5640 5638 5637 5636 5635 5634 5633 5632 5631 5630 5628 5627 5626 5626 5625 5625 5624 5624 5624 5624 5623 5622 5621
5642 5642 5643 5642 5642 5642 5642 5641 5640 5637 5635 5634 5634 5634 5636 5636 5635 5634 5632 5630 5629 5628 5627 5626 5625 5624 5623 5621 5620 5619 5618 5617 5615 5614 5613 5612 5612 5611 5611 5611 5610 5610 5609 5607
5631 5631 5632 5632 5632 5632 5632 5631 5629 5628 5626 5624 5623 5627 5626 5625 5624 5622 5621 5619 5618 5617 5616 5615 5613 5612 5611 5610 5609 5608 5606 5605 5604 5602 5601 5600 5599 5598 5598 5597 5597 5596 5595 5594
5622 5621 5621 5622 5622 5621 5621 5621 5620 5619 5617 5615 5613 5617 5615 5614 5612 5611 5609 5608 5606 5605 5604 5603 5602 5601 5600 5599 5597 5596 5595 5593 5592 5590 5589 5588 5587 5586 5585 5584 5583 5583 5581 5580
5612 5611 5611 5611 5613 5612 5610 5610 5609 5608 5606 5604 5603 5607 5605 5603 5601 5600 5598 5597 5595 5594 5593 5591 5590 5589 5588 5587 5586 5584 5583 5581 5580 5578 5577 5576 5574 5573 5572 5571 5570 5569 5568 5566
5602 5601 5602 5602 5601 5601 5600 5600 5599 5597 5595 5594 5594 5595 5595 5593 5591 5589 5587 5585 5584 5583 5582 5580 5579 5578 5577 5576 5574 5573 5571 5569 5568 5566 5565 5563 5562 5560 5559 5558 5557 5555 5554 5552
5592 5592 5591 5591 5590 5590 5589 5589 5588 5587 5586 5585 5585 5584 5585 5582 5580 5578 5577 5575 5573 5572 5571 5570 5568 5567 5566 5565 5563 5561 5559 5557 5556 5554 5552 5551 5549 5547 5546 5545 5543 5542 5540 5538
5582 5582 5581 5581 5580 5579 5578 5578 5578 5577 5576 5575 5574 5574 5574 5571 5570 5568 5566 5564 5563 5562 5560 5559 5558 5556 5555 5553 5551 5550 5547 5546 5544 5542 5540 5538 5536 5535 5533 5532 5530 5528 5526 5524
5573 5572 5571 5571 5570 5567 5568 5570 5568 5567 5566 5565 5564 5565 5562 5561 5559 5558 5556 5554 5553 5551 5550 5548 5547 5545 5543 5542 5540 5538 5536 5534 5532 5530 5528 5526 5524 5522 5520 5519 5517 5515 5512 5510
5564 5562 5560 5559 5560 5558 5562 5559 5558 5557 5556 5554 5553 5553 5552 5550 5549 5547 5545 5544 5542 5541 5539 5538 5536 5534 5532 5530 5528 5526 5524 5522 5520 5518 5516 5513 5512 5510 5507 5505 5503 5501 5499 5497
5554 5552 5551 5549 5548 5548 5550 5549 5547 5546 5545 5544 5543 5542 5541 5540 5538 5537 5535 5533 5532 5530 5528 5527 5525 5523 5521 5519 5517 5515 5513 5511 5508 5506 5504 5502 5499 5497 5495 5492 5490 5488 5486 5484
5545 5543 5542 5540 5538 5538 5541 5539 5536 5535 5535 5535 5533 5531 5530 5529 5528 5527 5525 5523 5521 5519 5518 5516 5514 5512 5510 5508 5506 5503 5501 5499 5497 5494 5492 5489 5487 5484 5482 5479 5477 5475 5473 5470
5535 5534 5532 5530 5528 5528 5529 5528 5526 5526 5526 5524 5522 5520 5519 5517 5517 5516 5514 5512 5510 5508 5507 5505 5503 5501 5499 5496 5494 5492 5489 5487 5485 5482 5480 5477 5474 5472 5469 5467 5464 5462 5460 5458
5526 5525 5523 5521 5519 5522 5519 5517 5516 5515 5513 5512 5511 5509 5508 5507 5505 5504 5502 5501 5499 5497 5495 5493 5491 5489 5487 5485 5482 5480 5478 5475 5472 5470 5467 5464 5462 5459 5457 5454 5452 5449 5447 5445
5517 5516 5514 5513 5513 5510 5508 5506 5505 5504 5503 5501 5500 5499 5498 5496 5495 5493 5492 5490 5488 5486 5484 5482 5480 5478 5475 5473 5470 5468 5465 5463 5460 5458 5455 5452 5450 5447 5444 5442 5439 5437 5434 5432
5508 5507 5505 5503 5502 5501 5499 5497 5495 5494 5493 5491 5490 5489 5488 5486 5484 5483 5481 5479 5477 5475 5473 5470 5468 5466 5463 5461 5458 5456 5453 5451 5448 5446 5443 5441 5438 5435 5433 5430 5427 5425 5422 5419
5499 5497 5495 5494 5493 5491 5489 5487 5486 5484 5482 5481 5480 5478 5477 5475 5474 5472 5470 5468 5466 5464 5461 5459 5457 5454 5452 5449 5447 5444 5442 5440 5437 5435 5432 5430 5427 5424 5421 5419 5416 5413 5410 5407
5490 5489 5487 5485 5484 5482 5480 5478 5476 5475 5473 5472 5470 5468 5466 5465 5463 5461 5459 5457 5455 5453 5450 5448 5445 5443 5440 5438 5436 5433 5431 5428 5426 5423 5421 5418 5416 5413 5410 5408 5405 5401 5399 5396